datetime,flow volume
1921-10-01,226.1157
1921-10-02,226.1157
1921-10-03,226.1157
1921-10-04,226.1157
1921-10-05,226.1157
1921-10-06,226.1157
1921-10-07,226.1157
1921-10-08,226.1157
1921-10-09,226.1157
1921-10-10,226.1157
1921-10-11,226.1157
1921-10-12,226.1157
1921-10-13,226.1157
1921-10-14,226.1157
1921-10-15,226.1157
1921-10-16,226.1157
1921-10-17,226.1157
1921-10-18,226.1157
1921-10-19,226.1157
1921-10-20,226.1157
1921-10-21,226.1157
1921-10-22,226.1157
1921-10-23,226.1157
1921-10-24,226.1157
1921-10-25,226.1157
1921-10-26,226.1157
1921-10-27,226.1157
1921-10-28,226.1157
1921-10-29,226.1157
1921-10-30,226.1157
1921-10-31,226.1157
1921-11-01,166.61157
1921-11-02,166.61157
1921-11-03,166.61157
1921-11-04,166.61157
1921-11-05,166.61157
1921-11-06,166.61157
1921-11-07,166.61157
1921-11-08,166.61157
1921-11-09,166.61157
1921-11-10,166.61157
1921-11-11,166.61157
1921-11-12,166.61157
1921-11-13,166.61157
1921-11-14,166.61157
1921-11-15,166.61157
1921-11-16,166.61157
1921-11-17,166.61157
1921-11-18,166.61157
1921-11-19,166.61157
1921-11-20,166.61157
1921-11-21,166.61157
1921-11-22,166.61157
1921-11-23,166.61157
1921-11-24,166.61157
1921-11-25,166.61157
1921-11-26,166.61157
1921-11-27,166.61157
1921-11-28,166.61157
1921-11-29,166.61157
1921-11-30,166.61157
1921-12-01,194.38017
1921-12-02,194.38017
1921-12-03,194.38017
1921-12-04,194.38017
1921-12-05,194.38017
1921-12-06,194.38017
1921-12-07,194.38017
1921-12-08,194.38017
1921-12-09,194.38017
1921-12-10,194.38017
1921-12-11,194.38017
1921-12-12,194.38017
1921-12-13,194.38017
1921-12-14,194.38017
1921-12-15,194.38017
1921-12-16,194.38017
1921-12-17,194.38017
1921-12-18,194.38017
1921-12-19,194.38017
1921-12-20,194.38017
1921-12-21,194.38017
1921-12-22,194.38017
1921-12-23,194.38017
1921-12-24,194.38017
1921-12-25,194.38017
1921-12-26,194.38017
1921-12-27,194.38017
1921-12-28,194.38017
1921-12-29,194.38017
1921-12-30,194.38017
1921-12-31,194.38017
1922-01-01,128.92562
1922-01-02,128.92562
1922-01-03,128.92562
1922-01-04,128.92562
1922-01-05,128.92562
1922-01-06,128.92562
1922-01-07,128.92562
1922-01-08,128.92562
1922-01-09,128.92562
1922-01-10,128.92562
1922-01-11,128.92562
1922-01-12,128.92562
1922-01-13,128.92562
1922-01-14,128.92562
1922-01-15,128.92562
1922-01-16,128.92562
1922-01-17,128.92562
1922-01-18,128.92562
1922-01-19,128.92562
1922-01-20,128.92562
1922-01-21,128.92562
1922-01-22,128.92562
1922-01-23,128.92562
1922-01-24,128.92562
1922-01-25,128.92562
1922-01-26,128.92562
1922-01-27,128.92562
1922-01-28,128.92562
1922-01-29,128.92562
1922-01-30,128.92562
1922-01-31,128.92562
1922-02-01,107.10744
1922-02-02,107.10744
1922-02-03,107.10744
1922-02-04,107.10744
1922-02-05,107.10744
1922-02-06,107.10744
1922-02-07,107.10744
1922-02-08,107.10744
1922-02-09,107.10744
1922-02-10,107.10744
1922-02-11,107.10744
1922-02-12,107.10744
1922-02-13,107.10744
1922-02-14,107.10744
1922-02-15,107.10744
1922-02-16,107.10744
1922-02-17,107.10744
1922-02-18,107.10744
1922-02-19,107.10744
1922-02-20,107.10744
1922-02-21,107.10744
1922-02-22,107.10744
1922-02-23,107.10744
1922-02-24,107.10744
1922-02-25,107.10744
1922-02-26,107.10744
1922-02-27,107.10744
1922-02-28,107.10744
1922-03-01,515.70248
1922-03-02,515.70248
1922-03-03,515.70248
1922-03-04,515.70248
1922-03-05,515.70248
1922-03-06,515.70248
1922-03-07,515.70248
1922-03-08,515.70248
1922-03-09,515.70248
1922-03-10,515.70248
1922-03-11,515.70248
1922-03-12,515.70248
1922-03-13,515.70248
1922-03-14,515.70248
1922-03-15,515.70248
1922-03-16,515.70248
1922-03-17,515.70248
1922-03-18,515.70248
1922-03-19,515.70248
1922-03-20,515.70248
1922-03-21,515.70248
1922-03-22,515.70248
1922-03-23,515.70248
1922-03-24,515.70248
1922-03-25,515.70248
1922-03-26,515.70248
1922-03-27,515.70248
1922-03-28,515.70248
1922-03-29,515.70248
1922-03-30,515.70248
1922-03-31,515.70248
1922-04-01,1666.1157
1922-04-02,1666.1157
1922-04-03,1666.1157
1922-04-04,1666.1157
1922-04-05,1666.1157
1922-04-06,1666.1157
1922-04-07,1666.1157
1922-04-08,1666.1157
1922-04-09,1666.1157
1922-04-10,1666.1157
1922-04-11,1666.1157
1922-04-12,1666.1157
1922-04-13,1666.1157
1922-04-14,1666.1157
1922-04-15,1666.1157
1922-04-16,1666.1157
1922-04-17,1666.1157
1922-04-18,1666.1157
1922-04-19,1666.1157
1922-04-20,1666.1157
1922-04-21,1666.1157
1922-04-22,1666.1157
1922-04-23,1666.1157
1922-04-24,1666.1157
1922-04-25,1666.1157
1922-04-26,1666.1157
1922-04-27,1666.1157
1922-04-28,1666.1157
1922-04-29,1666.1157
1922-04-30,1666.1157
1922-05-01,4760.33058
1922-05-02,4760.33058
1922-05-03,4760.33058
1922-05-04,4760.33058
1922-05-05,4859.50413
1922-05-06,5871.07438
1922-05-07,7061.15702
1922-05-08,8727.27273
1922-05-09,8727.27273
1922-05-10,7894.21488
1922-05-11,4859.50413
1922-05-12,5871.07438
1922-05-13,4284.29752
1922-05-14,4006.61157
1922-05-15,4561.98347
1922-05-16,4859.50413
1922-05-17,4859.50413
1922-05-18,7061.15702
1922-05-19,7894.21488
1922-05-20,8727.27273
1922-05-21,9600.0
1922-05-22,10631.405
1922-05-23,8727.27273
1922-05-24,7894.21488
1922-05-25,8727.27273
1922-05-26,9600.0
1922-05-27,10631.405
1922-05-28,11206.6116
1922-05-29,10095.8678
1922-05-30,10631.405
1922-05-31,9600.0
1922-06-01,7894.21488
1922-06-02,7477.68595
1922-06-03,7061.15702
1922-06-04,6644.6281
1922-06-05,6644.6281
1922-06-06,7061.15702
1922-06-07,6644.6281
1922-06-08,6247.93388
1922-06-09,6644.6281
1922-06-10,6644.6281
1922-06-11,7061.15702
1922-06-12,6247.93388
1922-06-13,5871.07438
1922-06-14,5514.04959
1922-06-15,4859.50413
1922-06-16,4284.29752
1922-06-17,3451.23967
1922-06-18,3193.38843
1922-06-19,2935.53719
1922-06-20,2697.52066
1922-06-21,2479.33884
1922-06-22,2142.14876
1922-06-23,2003.30579
1922-06-24,1864.46281
1922-06-25,1725.61983
1922-06-26,1586.77686
1922-06-27,1317.02479
1922-06-28,1079.00826
1922-06-29,868.76033
1922-06-30,686.28099
1922-07-01,606.94215
1922-07-02,468.09917
1922-07-03,408.59504
1922-07-04,357.02479
1922-07-05,309.42149
1922-07-06,265.78512
1922-07-07,265.78512
1922-07-08,226.1157
1922-07-09,226.1157
1922-07-10,226.1157
1922-07-11,226.1157
1922-07-12,226.1157
1922-07-13,190.41322
1922-07-14,226.1157
1922-07-15,158.67769
1922-07-16,190.41322
1922-07-17,190.41322
1922-07-18,190.41322
1922-07-19,158.67769
1922-07-20,158.67769
1922-07-21,158.67769
1922-07-22,130.90909
1922-07-23,130.90909
1922-07-24,130.90909
1922-07-25,130.90909
1922-07-26,130.90909
1922-07-27,130.90909
1922-07-28,130.90909
1922-07-29,103.1405
1922-07-30,79.33884
1922-07-31,79.33884
1922-08-01,79.33884
1922-08-02,103.1405
1922-08-03,79.33884
1922-08-04,103.1405
1922-08-05,103.1405
1922-08-06,103.1405
1922-08-07,103.1405
1922-08-08,103.1405
1922-08-09,91.23967
1922-08-10,91.23967
1922-08-11,91.23967
1922-08-12,91.23967
1922-08-13,103.1405
1922-08-14,79.33884
1922-08-15,79.33884
1922-08-16,91.23967
1922-08-17,91.23967
1922-08-18,55.53719
1922-08-19,55.53719
1922-08-20,55.53719
1922-08-21,226.1157
1922-08-22,190.41322
1922-08-23,103.1405
1922-08-24,103.1405
1922-08-25,79.33884
1922-08-26,55.53719
1922-08-27,39.66942
1922-08-28,39.66942
1922-08-29,39.66942
1922-08-30,39.66942
1922-08-31,39.66942
1922-09-01,39.66942
1922-09-02,39.66942
1922-09-03,39.66942
1922-09-04,39.66942
1922-09-05,37.68595
1922-09-06,35.70248
1922-09-07,33.71901
1922-09-08,35.70248
1922-09-09,37.68595
1922-09-10,39.66942
1922-09-11,37.68595
1922-09-12,35.70248
1922-09-13,33.71901
1922-09-14,39.66942
1922-09-15,45.61983
1922-09-16,51.57025
1922-09-17,55.53719
1922-09-18,51.57025
1922-09-19,47.60331
1922-09-20,43.63636
1922-09-21,39.66942
1922-09-22,37.68595
1922-09-23,35.70248
1922-09-24,33.71901
1922-09-25,31.73554
1922-09-26,29.75207
1922-09-27,27.7686
1922-09-28,31.73554
1922-09-29,33.71901
1922-09-30,33.71901
1922-10-01,39.66942
1922-10-02,47.60331
1922-10-03,47.60331
1922-10-04,47.60331
1922-10-05,55.53719
1922-10-06,55.53719
1922-10-07,67.43802
1922-10-08,55.53719
1922-10-09,67.43802
1922-10-10,67.43802
1922-10-11,79.33884
1922-10-12,79.33884
1922-10-13,91.23967
1922-10-14,91.23967
1922-10-15,91.23967
1922-10-16,91.23967
1922-10-17,117.02479
1922-10-18,103.1405
1922-10-19,103.1405
1922-10-20,103.1405
1922-10-21,117.02479
1922-10-22,103.1405
1922-10-23,117.02479
1922-10-24,117.02479
1922-10-25,130.90909
1922-10-26,130.90909
1922-10-27,130.90909
1922-10-28,130.90909
1922-10-29,117.02479
1922-10-30,117.02479
1922-10-31,103.1405
1922-11-01,117.02479
1922-11-02,103.1405
1922-11-03,103.1405
1922-11-04,103.1405
1922-11-05,91.23967
1922-11-06,91.23967
1922-11-07,103.1405
1922-11-08,91.23967
1922-11-09,79.33884
1922-11-10,91.23967
1922-11-11,79.33884
1922-11-12,79.33884
1922-11-13,79.33884
1922-11-14,79.33884
1922-11-15,91.23967
1922-11-16,91.23967
1922-11-17,103.1405
1922-11-18,103.1405
1922-11-19,103.1405
1922-11-20,103.1405
1922-11-21,117.02479
1922-11-22,130.90909
1922-11-23,91.23967
1922-11-24,91.23967
1922-11-25,103.1405
1922-11-26,117.02479
1922-11-27,103.1405
1922-11-28,91.23967
1922-11-29,103.1405
1922-11-30,79.33884
1922-12-01,128.92562
1922-12-02,128.92562
1922-12-03,128.92562
1922-12-04,128.92562
1922-12-05,128.92562
1922-12-06,128.92562
1922-12-07,128.92562
1922-12-08,128.92562
1922-12-09,128.92562
1922-12-10,128.92562
1922-12-11,128.92562
1922-12-12,128.92562
1922-12-13,128.92562
1922-12-14,128.92562
1922-12-15,128.92562
1922-12-16,128.92562
1922-12-17,128.92562
1922-12-18,128.92562
1922-12-19,128.92562
1922-12-20,128.92562
1922-12-21,128.92562
1922-12-22,128.92562
1922-12-23,128.92562
1922-12-24,128.92562
1922-12-25,128.92562
1922-12-26,128.92562
1922-12-27,128.92562
1922-12-28,128.92562
1922-12-29,128.92562
1922-12-30,128.92562
1922-12-31,128.92562
1923-01-01,194.38017
1923-01-02,194.38017
1923-01-03,194.38017
1923-01-04,194.38017
1923-01-05,194.38017
1923-01-06,194.38017
1923-01-07,194.38017
1923-01-08,194.38017
1923-01-09,194.38017
1923-01-10,194.38017
1923-01-11,194.38017
1923-01-12,194.38017
1923-01-13,194.38017
1923-01-14,194.38017
1923-01-15,194.38017
1923-01-16,194.38017
1923-01-17,194.38017
1923-01-18,194.38017
1923-01-19,194.38017
1923-01-20,194.38017
1923-01-21,194.38017
1923-01-22,194.38017
1923-01-23,194.38017
1923-01-24,194.38017
1923-01-25,194.38017
1923-01-26,194.38017
1923-01-27,194.38017
1923-01-28,194.38017
1923-01-29,194.38017
1923-01-30,194.38017
1923-01-31,194.38017
1923-02-01,107.10744
1923-02-02,107.10744
1923-02-03,107.10744
1923-02-04,107.10744
1923-02-05,107.10744
1923-02-06,107.10744
1923-02-07,107.10744
1923-02-08,107.10744
1923-02-09,107.10744
1923-02-10,107.10744
1923-02-11,107.10744
1923-02-12,107.10744
1923-02-13,107.10744
1923-02-14,107.10744
1923-02-15,107.10744
1923-02-16,107.10744
1923-02-17,107.10744
1923-02-18,107.10744
1923-02-19,107.10744
1923-02-20,107.10744
1923-02-21,107.10744
1923-02-22,107.10744
1923-02-23,107.10744
1923-02-24,107.10744
1923-02-25,107.10744
1923-02-26,107.10744
1923-02-27,107.10744
1923-02-28,107.10744
1923-03-01,547.43802
1923-03-02,547.43802
1923-03-03,547.43802
1923-03-04,547.43802
1923-03-05,547.43802
1923-03-06,547.43802
1923-03-07,547.43802
1923-03-08,547.43802
1923-03-09,547.43802
1923-03-10,547.43802
1923-03-11,547.43802
1923-03-12,547.43802
1923-03-13,547.43802
1923-03-14,547.43802
1923-03-15,547.43802
1923-03-16,547.43802
1923-03-17,547.43802
1923-03-18,547.43802
1923-03-19,547.43802
1923-03-20,547.43802
1923-03-21,547.43802
1923-03-22,547.43802
1923-03-23,547.43802
1923-03-24,547.43802
1923-03-25,547.43802
1923-03-26,547.43802
1923-03-27,547.43802
1923-03-28,547.43802
1923-03-29,547.43802
1923-03-30,547.43802
1923-03-31,547.43802
1923-04-01,2340.49587
1923-04-02,2340.49587
1923-04-03,2340.49587
1923-04-04,2340.49587
1923-04-05,2340.49587
1923-04-06,2340.49587
1923-04-07,2340.49587
1923-04-08,2340.49587
1923-04-09,2340.49587
1923-04-10,2340.49587
1923-04-11,2340.49587
1923-04-12,2340.49587
1923-04-13,2340.49587
1923-04-14,2340.49587
1923-04-15,2340.49587
1923-04-16,2340.49587
1923-04-17,2340.49587
1923-04-18,2340.49587
1923-04-19,2340.49587
1923-04-20,2340.49587
1923-04-21,2340.49587
1923-04-22,2340.49587
1923-04-23,2340.49587
1923-04-24,2340.49587
1923-04-25,2340.49587
1923-04-26,2340.49587
1923-04-27,2340.49587
1923-04-28,2340.49587
1923-04-29,2340.49587
1923-04-30,2340.49587
1923-05-01,5137.19008
1923-05-02,4700.82645
1923-05-03,4700.82645
1923-05-04,4800.0
1923-05-05,5593.38843
1923-05-06,7795.04132
1923-05-07,6842.97521
1923-05-08,6585.12397
1923-05-09,6069.42149
1923-05-10,7100.82645
1923-05-11,7239.66942
1923-05-12,7239.66942
1923-05-13,5593.38843
1923-05-14,4700.82645
1923-05-15,4482.64463
1923-05-16,4601.65289
1923-05-17,4264.46281
1923-05-18,4264.46281
1923-05-19,4700.82645
1923-05-20,5831.40496
1923-05-21,5355.3719
1923-05-22,4482.64463
1923-05-23,4264.46281
1923-05-24,5950.41322
1923-05-25,7100.82645
1923-05-26,7933.8843
1923-05-27,8826.44628
1923-05-28,9421.4876
1923-05-29,9719.00826
1923-05-30,8826.44628
1923-05-31,7656.19835
1923-06-01,7100.82645
1923-06-02,6842.97521
1923-06-03,6842.97521
1923-06-04,6466.1157
1923-06-05,6585.12397
1923-06-06,6585.12397
1923-06-07,6069.42149
1923-06-08,5355.3719
1923-06-09,4919.00826
1923-06-10,5831.40496
1923-06-11,6188.42975
1923-06-12,5831.40496
1923-06-13,5593.38843
1923-06-14,5593.38843
1923-06-15,5355.3719
1923-06-16,5236.36364
1923-06-17,4700.82645
1923-06-18,4482.64463
1923-06-19,3966.94215
1923-06-20,3570.24793
1923-06-21,3471.07438
1923-06-22,2856.19835
1923-06-23,2618.18182
1923-06-24,2320.66116
1923-06-25,2122.31405
1923-06-26,2042.97521
1923-06-27,1981.4876
1923-06-28,1916.03306
1923-06-29,1785.12397
1923-06-30,1376.52893
1923-07-01,1186.1157
1923-07-02,1055.20661
1923-07-03,1013.55372
1923-07-04,1055.20661
1923-07-05,971.90083
1923-07-06,892.56198
1923-07-07,733.8843
1923-07-08,519.66942
1923-07-09,426.44628
1923-07-10,341.15702
1923-07-11,289.58678
1923-07-12,241.98347
1923-07-13,198.34711
1923-07-14,341.15702
1923-07-15,456.19835
1923-07-16,733.8843
1923-07-17,1142.47934
1923-07-18,1055.20661
1923-07-19,813.22314
1923-07-20,733.8843
1923-07-21,622.80992
1923-07-22,341.15702
1923-07-23,198.34711
1923-07-24,198.34711
1923-07-25,162.64463
1923-07-26,97.19008
1923-07-27,73.38843
1923-07-28,73.38843
1923-07-29,73.38843
1923-07-30,73.38843
1923-07-31,47.60331
1923-08-01,19.83471
1923-08-02,15.86777
1923-08-03,15.86777
1923-08-04,15.86777
1923-08-05,15.86777
1923-08-06,15.86777
1923-08-07,15.86777
1923-08-08,15.86777
1923-08-09,11.90083
1923-08-10,11.90083
1923-08-11,11.90083
1923-08-12,11.90083
1923-08-13,11.90083
1923-08-14,11.90083
1923-08-15,15.86777
1923-08-16,341.15702
1923-08-17,176.52893
1923-08-18,97.19008
1923-08-19,115.04132
1923-08-20,176.52893
1923-08-21,198.34711
1923-08-22,220.16529
1923-08-23,241.98347
1923-08-24,234.04959
1923-08-25,241.98347
1923-08-26,224.13223
1923-08-27,198.34711
1923-08-28,184.46281
1923-08-29,176.52893
1923-08-30,158.67769
1923-08-31,162.64463
1923-09-01,176.52893
1923-09-02,206.28099
1923-09-03,241.98347
1923-09-04,251.90083
1923-09-05,265.78512
1923-09-06,265.78512
1923-09-07,289.58678
1923-09-08,265.78512
1923-09-09,251.90083
1923-09-10,241.98347
1923-09-11,241.98347
1923-09-12,265.78512
1923-09-13,279.66942
1923-09-14,265.78512
1923-09-15,265.78512
1923-09-16,275.70248
1923-09-17,279.66942
1923-09-18,289.58678
1923-09-19,289.58678
1923-09-20,289.58678
1923-09-21,289.58678
1923-09-22,289.58678
1923-09-23,289.58678
1923-09-24,289.58678
1923-09-25,289.58678
1923-09-26,289.58678
1923-09-27,289.58678
1923-09-28,289.58678
1923-09-29,289.58678
1923-09-30,289.58678
1923-10-01,384.79339
1923-10-02,368.92562
1923-10-03,362.97521
1923-10-04,353.05785
1923-10-05,353.05785
1923-10-06,353.05785
1923-10-07,396.69421
1923-10-08,561.32231
1923-10-09,460.16529
1923-10-10,448.26446
1923-10-11,460.16529
1923-10-12,434.38017
1923-10-13,448.26446
1923-10-14,408.59504
1923-10-15,396.69421
1923-10-16,428.42975
1923-10-17,396.69421
1923-10-18,380.82645
1923-10-19,368.92562
1923-10-20,353.05785
1923-10-21,335.20661
1923-10-22,319.33884
1923-10-23,368.92562
1923-10-24,368.92562
1923-10-25,374.87603
1923-10-26,384.79339
1923-10-27,408.59504
1923-10-28,384.79339
1923-10-29,396.69421
1923-10-30,396.69421
1923-10-31,396.69421
1923-11-01,238.01653
1923-11-02,238.01653
1923-11-03,238.01653
1923-11-04,238.01653
1923-11-05,238.01653
1923-11-06,238.01653
1923-11-07,238.01653
1923-11-08,238.01653
1923-11-09,238.01653
1923-11-10,238.01653
1923-11-11,238.01653
1923-11-12,238.01653
1923-11-13,238.01653
1923-11-14,238.01653
1923-11-15,238.01653
1923-11-16,238.01653
1923-11-17,238.01653
1923-11-18,238.01653
1923-11-19,238.01653
1923-11-20,238.01653
1923-11-21,238.01653
1923-11-22,238.01653
1923-11-23,238.01653
1923-11-24,238.01653
1923-11-25,238.01653
1923-11-26,238.01653
1923-11-27,238.01653
1923-11-28,238.01653
1923-11-29,238.01653
1923-11-30,238.01653
1923-12-01,138.84298
1923-12-02,138.84298
1923-12-03,138.84298
1923-12-04,138.84298
1923-12-05,138.84298
1923-12-06,138.84298
1923-12-07,138.84298
1923-12-08,138.84298
1923-12-09,138.84298
1923-12-10,138.84298
1923-12-11,138.84298
1923-12-12,138.84298
1923-12-13,138.84298
1923-12-14,138.84298
1923-12-15,138.84298
1923-12-16,138.84298
1923-12-17,138.84298
1923-12-18,138.84298
1923-12-19,138.84298
1923-12-20,138.84298
1923-12-21,138.84298
1923-12-22,138.84298
1923-12-23,138.84298
1923-12-24,138.84298
1923-12-25,138.84298
1923-12-26,138.84298
1923-12-27,138.84298
1923-12-28,138.84298
1923-12-29,138.84298
1923-12-30,138.84298
1923-12-31,138.84298
1924-01-01,138.84298
1924-01-02,138.84298
1924-01-03,138.84298
1924-01-04,138.84298
1924-01-05,138.84298
1924-01-06,138.84298
1924-01-07,138.84298
1924-01-08,138.84298
1924-01-09,138.84298
1924-01-10,138.84298
1924-01-11,138.84298
1924-01-12,138.84298
1924-01-13,138.84298
1924-01-14,138.84298
1924-01-15,138.84298
1924-01-16,138.84298
1924-01-17,138.84298
1924-01-18,138.84298
1924-01-19,138.84298
1924-01-20,138.84298
1924-01-21,138.84298
1924-01-22,138.84298
1924-01-23,138.84298
1924-01-24,138.84298
1924-01-25,138.84298
1924-01-26,138.84298
1924-01-27,138.84298
1924-01-28,138.84298
1924-01-29,138.84298
1924-01-30,138.84298
1924-01-31,138.84298
1924-02-01,178.5124
1924-02-02,178.5124
1924-02-03,178.5124
1924-02-04,178.5124
1924-02-05,178.5124
1924-02-06,178.5124
1924-02-07,178.5124
1924-02-08,178.5124
1924-02-09,178.5124
1924-02-10,178.5124
1924-02-11,178.5124
1924-02-12,178.5124
1924-02-13,178.5124
1924-02-14,178.5124
1924-02-15,178.5124
1924-02-16,178.5124
1924-02-17,178.5124
1924-02-18,178.5124
1924-02-19,178.5124
1924-02-20,178.5124
1924-02-21,178.5124
1924-02-22,178.5124
1924-02-23,178.5124
1924-02-24,178.5124
1924-02-25,178.5124
1924-02-26,178.5124
1924-02-27,178.5124
1924-02-28,178.5124
1924-02-29,178.5124
1924-03-01,297.52066
1924-03-02,297.52066
1924-03-03,297.52066
1924-03-04,297.52066
1924-03-05,297.52066
1924-03-06,297.52066
1924-03-07,297.52066
1924-03-08,297.52066
1924-03-09,297.52066
1924-03-10,297.52066
1924-03-11,297.52066
1924-03-12,297.52066
1924-03-13,297.52066
1924-03-14,297.52066
1924-03-15,297.52066
1924-03-16,297.52066
1924-03-17,297.52066
1924-03-18,297.52066
1924-03-19,297.52066
1924-03-20,297.52066
1924-03-21,297.52066
1924-03-22,297.52066
1924-03-23,297.52066
1924-03-24,297.52066
1924-03-25,297.52066
1924-03-26,297.52066
1924-03-27,297.52066
1924-03-28,297.52066
1924-03-29,297.52066
1924-03-30,297.52066
1924-03-31,297.52066
1924-04-01,1190.08264
1924-04-02,1785.12397
1924-04-03,1884.29752
1924-04-04,1983.47107
1924-04-05,2181.81818
1924-04-06,2280.99174
1924-04-07,2380.16529
1924-04-08,2776.8595
1924-04-09,3570.24793
1924-04-10,3966.94215
1924-04-11,5157.02479
1924-04-12,5950.41322
1924-04-13,6347.10744
1924-04-14,5950.41322
1924-04-15,5950.41322
1924-04-16,5593.38843
1924-04-17,3768.59504
1924-04-18,2499.17355
1924-04-19,2122.31405
1924-04-20,1850.57851
1924-04-21,1483.63636
1924-04-22,1598.67769
1924-04-23,2122.31405
1924-04-24,2776.8595
1924-04-25,2856.19835
1924-04-26,2935.53719
1924-04-27,2935.53719
1924-04-28,2935.53719
1924-04-29,3094.21488
1924-04-30,3371.90083
1924-05-01,3471.07438
1924-05-02,3669.42149
1924-05-03,3570.24793
1924-05-04,5831.40496
1924-05-05,7100.82645
1924-05-06,6704.13223
1924-05-07,6327.27273
1924-05-08,5712.39669
1924-05-09,5474.38017
1924-05-10,5137.19008
1924-05-11,4700.82645
1924-05-12,5038.01653
1924-05-13,5355.3719
1924-05-14,4919.00826
1924-05-15,5474.38017
1924-05-16,5712.39669
1924-05-17,6069.42149
1924-05-18,6188.42975
1924-05-19,6466.1157
1924-05-20,5593.38843
1924-05-21,5474.38017
1924-05-22,5593.38843
1924-05-23,5831.40496
1924-05-24,6069.42149
1924-05-25,6188.42975
1924-05-26,6327.27273
1924-05-27,6466.1157
1924-05-28,6981.81818
1924-05-29,6069.42149
1924-05-30,5831.40496
1924-05-31,5831.40496
1924-06-01,5831.40496
1924-06-02,5474.38017
1924-06-03,5137.19008
1924-06-04,5236.36364
1924-06-05,4601.65289
1924-06-06,4363.63636
1924-06-07,4066.1157
1924-06-08,3867.7686
1924-06-09,3173.55372
1924-06-10,2538.84298
1924-06-11,2380.16529
1924-06-12,2181.81818
1924-06-13,2261.15702
1924-06-14,2320.66116
1924-06-15,2380.16529
1924-06-16,2380.16529
1924-06-17,2181.81818
1924-06-18,1981.4876
1924-06-19,1850.57851
1924-06-20,1277.35537
1924-06-21,1324.95868
1924-06-22,1055.20661
1924-06-23,852.89256
1924-06-24,666.44628
1924-06-25,527.60331
1924-06-26,460.16529
1924-06-27,396.69421
1924-06-28,396.69421
1924-06-29,368.92562
1924-06-30,368.92562
1924-07-01,368.92562
1924-07-02,368.92562
1924-07-03,341.15702
1924-07-04,368.92562
1924-07-05,341.15702
1924-07-06,313.38843
1924-07-07,313.38843
1924-07-08,285.61983
1924-07-09,257.85124
1924-07-10,230.08264
1924-07-11,230.08264
1924-07-12,257.85124
1924-07-13,230.08264
1924-07-14,204.29752
1924-07-15,204.29752
1924-07-16,178.5124
1924-07-17,156.69421
1924-07-18,156.69421
1924-07-19,156.69421
1924-07-20,156.69421
1924-07-21,113.05785
1924-07-22,113.05785
1924-07-23,91.23967
1924-07-24,91.23967
1924-07-25,69.42149
1924-07-26,47.60331
1924-07-27,7.93388
1924-07-28,3.96694
1924-07-29,3.96694
1924-07-30,0.0
1924-07-31,0.0
1924-08-01,0.0
1924-08-02,0.0
1924-08-03,0.0
1924-08-04,0.0
1924-08-05,0.0
1924-08-06,0.0
1924-08-07,0.0
1924-08-08,0.0
1924-08-09,0.0
1924-08-10,0.0
1924-08-11,0.0
1924-08-12,0.0
1924-08-13,0.0
1924-08-14,0.0
1924-08-15,0.0
1924-08-16,0.0
1924-08-17,0.0
1924-08-18,0.0
1924-08-19,0.0
1924-08-20,0.0
1924-08-21,0.0
1924-08-22,0.0
1924-08-23,0.0
1924-08-24,0.0
1924-08-25,0.0
1924-08-26,0.0
1924-08-27,0.0
1924-08-28,0.0
1924-08-29,0.0
1924-08-30,0.0
1924-08-31,0.0
1924-09-01,0.0
1924-09-02,0.0
1924-09-03,0.0
1924-09-04,0.0
1924-09-05,0.0
1924-09-06,0.0
1924-09-07,0.0
1924-09-08,0.0
1924-09-09,0.0
1924-09-10,0.0
1924-09-11,0.0
1924-09-12,230.08264
1924-09-13,0.0
1924-09-14,0.0
1924-09-15,0.0
1924-09-16,0.0
1924-09-17,0.0
1924-09-18,0.0
1924-09-19,0.0
1924-09-20,0.0
1924-09-21,7.93388
1924-09-22,23.80165
1924-09-23,15.86777
1924-09-24,27.7686
1924-09-25,23.80165
1924-09-26,15.86777
1924-09-27,31.73554
1924-09-28,47.60331
1924-09-29,47.60331
1924-09-30,47.60331
1924-10-01,47.60331
1924-10-02,47.60331
1924-10-03,47.60331
1924-10-04,47.60331
1924-10-05,47.60331
1924-10-06,47.60331
1924-10-07,47.60331
1924-10-08,47.60331
1924-10-09,47.60331
1924-10-10,47.60331
1924-10-11,91.23967
1924-10-12,69.42149
1924-10-13,47.60331
1924-10-14,47.60331
1924-10-15,47.60331
1924-10-16,47.60331
1924-10-17,134.87603000000001
1924-10-18,134.87603000000001
1924-10-19,142.80992
1924-10-20,156.69421
1924-10-21,170.57851
1924-10-22,194.38017
1924-10-23,204.29752
1924-10-24,204.29752
1924-10-25,204.29752
1924-10-26,204.29752
1924-10-27,204.29752
1924-10-28,214.21488
1924-10-29,220.16529
1924-10-30,257.85124
1924-10-31,245.95041
1924-11-01,299.50413
1924-11-02,299.50413
1924-11-03,299.50413
1924-11-04,299.50413
1924-11-05,299.50413
1924-11-06,299.50413
1924-11-07,299.50413
1924-11-08,299.50413
1924-11-09,299.50413
1924-11-10,299.50413
1924-11-11,299.50413
1924-11-12,299.50413
1924-11-13,299.50413
1924-11-14,299.50413
1924-11-15,299.50413
1924-11-16,299.50413
1924-11-17,299.50413
1924-11-18,299.50413
1924-11-19,299.50413
1924-11-20,299.50413
1924-11-21,299.50413
1924-11-22,299.50413
1924-11-23,299.50413
1924-11-24,299.50413
1924-11-25,299.50413
1924-11-26,299.50413
1924-11-27,299.50413
1924-11-28,299.50413
1924-11-29,299.50413
1924-11-30,299.50413